Погода в Слуцке

Погода в Слуцке : погода сейчас, прогноз погоды и архив. Всё, что Вы хотите узнать о погоде в Слуцке!

Хотите узнать прогноз погоды в Слуцке? Тогда Вам сюда: Погода в Слуцке

Поиск расширенной информации на нашем сайте:

Полезная информация: умеренная стоимость проката авто без водителя

Другие новости

Новости СМИ2

Главная страница сайта

Новости сайта

02.10.2013

Напоминаем, что на нашем новом сайте вы можете получить высокодетализированные прогнозы погоды по пунктам России, СНГ и мира (включающие важные для авиации метеовеличины, такие как направление и скорость ветра, видимость, явления погоды, количество и форма облачности, нижняя и верхняя граница облачности), а также ознакомиться с разнообразными материалами по авиационной метеорологии и подборкой полезных ссылок на эту тему.

Сайт Метеоцентр.Азия посвящён разработке технологий оптимизации авиаметеорологического обслуживания, включая проектирование и перспективное создание нескольких автоматизированных авиаметеорологических систем:
- система выпуска высокодетальных прогностических карт явлений погоды для нижнего воздушного пространства по России и ближнему зарубежью;
- система верификации прогнозов TAF (выпускаемых синоптиками официальных АМСГ РФ и ближнего зарубежья) и AUTOTAF (выпускаемых сайтом Метеоцентр.Азия) - выявление ошибок, онлайн-сопоставление с фактической погодой METAR, автоматическое внесение коррективов в прогнозы при резком отклонении фактической погоды от прогноза, подсчёт оправдываемости прогнозов по элементам и в целом;
- система обработки, анализа и отображения авиаметеорологической информации для применения провайдерами метеорологической информации.

Рекомендуем: Регистрация торговых марок преимущества регистрации торговой марки www.s-tm.ru.

Погода в Слуцке - сегодня

Время (UTC), дата Ветер
(°,м/с) 
Видим.   Явления Облачность Т
(°С)
Тd
(°С)
f(%) Тe
(°С)
Pmin
(гПа)
dP
(гПа)
Po
(мм)
O2
(г/м3)
Тmin Tmax R s Состояние
почвы
03 23.10.14 090 (В) 6{11}  15000 м    9/9 1080 м 
[Sc]
-2 -6.6 71 -6  1021.1  1.1  750  305           
06 23.10.14 080 (В) 5{10}  16000 м    9/0 средняя 
[Ac lent]
-3.5 -7.5 74 -7  1024.3  2.9  753  308  -3.4         
09 23.10.14 090 (В) 5{11}  15000 м    9/0 средняя 
[Ac cast]
-1.8 -9.7 55 -5  1026.4  2.3  754  307           
12 23.10.14 080 (В) 5{10}  18000 м    9/0 средняя 
[Ac trans]
+0.7 -13.3 34 -2  1026.8  0.5  755  304           
15 23.10.14 070 (В) 18000 м    8/0 средняя, верхняя 
[Ac trans|Ci sp]
-1.5 -10.3 51 -4  1028.5  1.5  756  307           
18 23.10.14 080 (В) 14000 м    ясно 
-3.9 -11.1 57 -7  1030.8  2.1  757  311    +1.2       
21 23.10.14 090 (В) 16000 м    ясно 
-5.4 -11.4 63 -8  1032.5  1.6  759  313           
00 24.10.14 090 (В) 15000 м    ясно 
-6.4 -12.4 62 -9  1033.4  0.9  759  314           
03 24.10.14 080 (В) 17000 м    ясно 
-8.8 -12.6 74 -12  1034.2  0.5  760  317           
06 24.10.14 090 (В) 18000 м    ясно 
-8.8 -12.2 76 -12  1036.1  1.9  761  318  -9.1         
09 24.10.14 110 (В) 20000 м    ясно 
-3.3 -12.2 50 -6  1036.3  0.5  761  312           
12 24.10.14 100 (В) 20000 м    ясно 
+0.4 -13 36 -2  1035.8  -0.2  761  307           
15 24.10.14 090 (В) 20000 м    ясно 
-1.1 -12 43 -3  1035.9  0.1  761  309           
18 24.10.14 090 (В) 20000 м    ясно 
-4.8 -9.7 68 -6  1036.5  0.3  762  313    +1       
21 24.10.14 110 (В) 20000 м    ясно 
-5.7 -10 72 -5  1037.6  762  315           
00 25.10.14 130 (ЮВ) 18000 м    ясно 
-6.6 -9.8 78 -6  1037.8  0.2  762  316           
03 25.10.14 140 (ЮВ) 18000 м    ясно 
-7.2 -9.7 82 -7  1037  -0.8  762  316           
06 25.10.14 120 (ЮВ) 10 км    3/0 верхняя 
[Ci fib]
-7.2 -9.7 82 -7  1037.7  0.7  762  317  -8.6         
09 25.10.14 160 (Ю) 15000 м    3/0 верхняя 
[Ci fib]
-1.3 -9 56 -3  1037.4  762  310           
12 25.10.14 160 (Ю) 15000 м    4/0 верхняя 
[Ci fib]
+1.8 -10.1 41 1036.1  -1  762  306           
15 25.10.14 120 (ЮВ) 10 км    5/0 верхняя 
[Ci fib]
+0.6 -11.1 41 1035.1  -1.2  761  307           
18 25.10.14 140 (ЮВ) 12000 м    ясно 
-1.2 -10.4 50 -2  1034.7  -0.4  760  309    +2.7       
21 25.10.14 170 (Ю) 12000 м    ясно 
-2.8 -9.7 59 -4  1035.4  0.6  761  311           
00 26.10.14 160 (Ю) 15000 м    ясно 
-4.1 -9.5 66 -5  1035.7  0.1  761  312           
03 26.10.14 160 (Ю) 13000 м    ясно 
-5.4 -9.2 75 -7  1035.4  -0.4  761  314           
Время (UTC), дата Ветер
(°,м/с) 
Видим.   Явления Облачность Т
(°С)
Тd
(°С)
f(%) Тe
(°С)
Pmin
(гПа)
dP
(гПа)
Po
(мм)
O2
(г/м3)
Тmin Tmax R s Состояние
почвы

Для получения пояснительной информации подведите курсор к названию столбца.

ПОГОДА в Слуцке - архив

Всё, что Вы хотите узнать о погоде в Слуцке - удобно и подробно!

Выберите нужную дату (начиная с 1 января 2013* года) и нажмите кнопку "Найти".
Будут отображены архивные сводки погоды по пункту Слуцк, начиная с указанной даты.


Отображать данные в формате CSV (для использования в таблицах Excel)


Внимание! Наш архив погоды предназначен исключительно для личного некоммерческого использования в познавательных целях. Если Вам необходимы официальные справки о состоянии погоды (для производственных, юридических, коммерческих и т.п. целей), обращайтесь в органы Росгидромета.

*Примечание: данная дата относится к архиву по метеостанциям СССР (Россия, СНГ, Балтия).
Архив по метеостанциям Зарубежной Европы и Азии (кроме Китая) хранится 10 дней, по другим регионам земного шара (Китай, Африка, Америка, Австралия, Океания) - 1 день.

Слуцк - район местоположения метеостанции


Название, широта, долгота, высота метеостанции:
Слуцк 53°ш. 27.6°д. 162 м над ур. моря [Беларусь]

Дополнительная информация

В oтличие oт бoльшинства пoгoдных сайтoв мы публикуем пoдрoбную метеoинфoрмацию в детальнoм прoфессиoнальнoм фoрмате.

Характеристики температуры и влажнoсти вoздуха измеряются на высoте 2 м в тени вдали oт зданий и деревьев.
Скoрoсть ветра измеряется на высoте 10 м (на урoвне рoста челoвека скoрoсть ветра ниже в 1.5-2 раза). Если метеoстанция нахoдится в гoрoде или в лесу, тo скoрoсть ветра занижена на 2-4 м/с пo сравнению с oткрытым местoм. Скoрoсть ветра над акватoриями крупных рек и oзёр, а также на вершинах хoлмoв на 2-5 м/с выше, чем в oбычных услoвиях.
Атмoсфернoе давление в разных тoчках местнoсти мoжет значительнo oтличаться oт давления на метеoстанции, в зависимoсти oт услoвий рельефа (при пoдъёме на 10 м давление пoнижается примернo на 1 мм рт.ст.).